sat.trackr.live / text

‹ back to catalog

STARLINK-5839

NORAD 57051 · 2023-088D

PAYLOAD ACTIVE UNKNOWN

§ Identity

Operator
Country
US
Launch date
2023-06-22
Launch site
AFWTR
Launch vehicle
Mass (kg)
RCS (m²)

Purposes: comms

External: N2YO · Heavens-Above · Gunter

§ Orbital elements

Epoch: 2026-09-19T21:02:36.068640Z

Period
94.27 min
Inclination
43.0004°
Eccentricity
0.0001911
Mean motion
15.27576999 rev/d
Perigee alt
481.7 km
Apogee alt
484.4 km
Semi-major
6,861.2 km
B*
1.9195e-5
RAAN
93.7584°
Arg perigee
249.8176°
Mean anomaly
110.2470°
Rev number
18,003

§ Raw data

STARLINK-58391 57051U 23088D   26262.87680635  .00000266  00000+0  19195-4 0  99922 57051  43.0004  93.7584 0001911 249.8176 110.2470 15.27576999180033

JSON: /api/v1/satellites/57051 · /tle

For live sub-satellite position, see the globe view (requires WebGL).

§ Visibility from observer

Set your observer location to see the next 7 days of passes ≥ 10°. The values pass through the URL so the page stays shareable.

No JS? Fill the form by hand. The geolocation button needs JavaScript.